sat.trackr.live / text

‹ back to catalog

UNKNOWN

NORAD 82560

UNKNOWN UNKNOWN UNKNOWN

§ Identity

Operator
Country
Launch date
Launch site
Launch vehicle
Mass (kg)
RCS (m²)

External: N2YO · Heavens-Above

§ Orbital elements

Epoch: 2026-09-18T16:05:44.774304Z

Period
103.50 min
Inclination
100.0097°
Eccentricity
0.0010165
Mean motion
13.91286583 rev/d
Perigee alt
916.7 km
Apogee alt
931.5 km
Semi-major
7,302.3 km
B*
7.0236e-4
RAAN
230.4319°
Arg perigee
297.8600°
Mean anomaly
239.4951°
Rev number
65,078

§ Raw data

UNKNOWN1 82560U          26261.67065711  .00000835  00000+0  70236-3 0  99972 82560 100.0097 230.4319 0010165 297.8600 239.4951 13.91286583650782

JSON: /api/v1/satellites/82560 · /tle

For live sub-satellite position, see the globe view (requires WebGL).

§ Visibility from observer

Set your observer location to see the next 7 days of passes ≥ 10°. The values pass through the URL so the page stays shareable.

No JS? Fill the form by hand. The geolocation button needs JavaScript.